Regional Weather Roundup
Issued by NWS Sioux Falls, SD

Home | Current Version | Previous Version | Graphics & Text | Print | Product List | Glossary Off
Versions: 1 2 3 4 5 6 7 8 9 10 11 12 13 14 15 16 17 18 19 20 21 22 23 24 25 26 27 28 29 30 31 32 33 34 35 36 37 38 39 40 41 42 43 44 45 46 47 48 49 50

000
ASUS43 KFSD 100102
RWRFSD

WEATHER ROUNDUP FOR SE SOUTH DAKOTA/SW MINNESOTA/NW IOWA
NATIONAL WEATHER SERVICE SIOUX FALLS SD
800 PM CDT WED JUL 09 2014

NOTE: "FAIR" INDICATES FEW OR NO CLOUDS BELOW 12,000 FEET WITH NO
SIGNIFICANT WEATHER AND OR OBSTRUCTIONS TO VISIBILITY.


SDZ038>040-050-052>070-100200-
SOUTHEAST SOUTH DAKOTA

CITY           SKY/WX    TMP DP  RH WIND       PRES   REMARKS
CHAMBERLAIN    SUNNY     75  59  57 S5        29.95S
HURON          SUNNY     78  57  48 NE8       29.95F HAZE
MADISON        FAIR      73  63  68 E7        29.99S
MITCHELL       SUNNY     78  61  55 SE7       29.96S HAZE
SIOUX FALLS    MOSUNNY   78  58  49 N5        29.97F
WINNER         FAIR      72  56  57 SE10      29.96F
YANKTON        SUNNY     75  57  53 SW10      29.98S
$$

MNZ071-072-080-081-089-090-097-098-100200-
SOUTHWEST MINNESOTA

CITY           SKY/WX    TMP DP  RH WIND       PRES   REMARKS
FAIRMONT       CLEAR     75  54  46 N3        29.99F
JACKSON        PTCLDY    73  55  53 NE3       30.01S
LUVERNE        SUNNY     79  54  41 CALM      29.99S
MARSHALL       SUNNY     75  52  43 MISG      29.99S
MONTEVIDEO     SUNNY     77  54  44 NE6       30.00S
PIPESTONE      SUNNY     75  57  53 CALM      30.00S
REDWOOD FALLS  CLEAR     77  53  43 N3        29.98S
TRACY          CLEAR     74  57  54 N3        30.00S
WINDOM         PTCLDY    73  55  53 CALM      30.00S
WORTHINGTON    MOCLDY    73  59  60 NE5       30.02S
$$

IAZ001>003-012>014-020>022-031-032-NEZ013-014-SDZ071-100200-
NORTHWEST IOWA

CITY           SKY/WX    TMP DP  RH WIND       PRES   REMARKS
CHEROKEE       CLEAR     75  64  68 S5        29.99S
DENISON        CLEAR     75  64  69 CALM      29.99S
ESTHERVILLE    MOCLDY    73  56  54 N7        29.99F
LE MARS        CLEAR     77  63  61 S6        29.98S
ORANGE CITY    CLEAR     79  61  53 CALM      29.99S
SHELDON        CLEAR     77  66  69 CALM      29.98S
SIOUX CITY     CLEAR     76  61  59 W7        29.98S
SPENCER        PTCLDY    73  64  73 E5        29.99F
STORM LAKE     CLEAR     75  66  73 SW3       30.01S
$$

ABBREVIATIONS USED IN REMARKS
   TC - TEMPERATURE IN CELSIUS
  WCI - WIND CHILL INDEX
   HX - HEAT INDEX
  VSB - VISIBILITY



USA.gov is the U.S. government's official web portal to all federal, state and local government web resources and services.